Preview of NWS' New Version of Forecast
This preview is not operational and should not be used for support decisions.

Regional Weather Roundup (RWR)

Issued by National Weather Service (NWS)

                            
000
ASUS43 KMKX 202211
RWRWI 

WISCONSIN REGIONAL WEATHER ROUNDUP
NATIONAL WEATHER SERVICE MILWAUKEE/SULLIVAN WI
400 PM CST WED FEB 20 2019

NOTE: "FAIR" INDICATES FEW OR NO CLOUDS BELOW 12,000 FEET WITH NO
SIGNIFICANT WEATHER AND/OR OBSTRUCTIONS TO VISIBILITY.

WIZ001-002-006>008-014>016-023>028-202300-
NORTHWEST WISCONSIN
  
CITY           SKY/WX    TMP DP  RH WIND       PRES   REMARKS
SUPERIOR ARPT  LGT SNOW  22  21  93 NE13G20   29.67F VSB 3/4 WCI  10  
ASHLAND        SNOW      24  22  91 NE13      29.66S VSB 1/4 WCI  12  
HAYWARD        SNOW      25  22  88 E7        29.59F VSB 1/2 WCI  17  
SIREN          LGT SNOW  26  24  89 E5        29.59F VSB 1   WCI  21  
CUMBERLAND     LGT SNOW  27  23  86 E7        29.57F VSB 1   WCI  19  
RICE LAKE      LGT SNOW  27  13  55 SE9       29.59F WCI  18          
CHETEK         LGT SNOW  26  24  90 SE8       29.58F VSB 1   WCI  18  
LADYSMITH      LGT SNOW  27  24  87 SE9       29.60F WCI  18          
EAU CLAIRE     LGT SNOW  27  24  89 SE6       29.57F FOG     WCI  20  
MENOMONIE      LGT SNOW  25  22  89 E7        29.58F VSB 1   WCI  17  
NEW RICHMOND   LGT SNOW  28  23  83 SE3       29.57F                  
OSCEOLA        CLOUDY    27  25  91 SE6       29.60F VSB 1   WCI  21  
$$
 
WIZ003>005-009-010-017-018-202300-
NORTH CENTRAL WISCONSIN
  
CITY           SKY/WX    TMP DP  RH WIND       PRES   REMARKS
MANITOWISH WTR NOT AVBL                                               
ARBOR VITAE    LGT SNOW  25  22  89 SE13      29.59F WCI  13          
WOODRUFF       LGT SNOW  25  22  89 SE13      29.59F WCI  13          
RHINELANDER    SNOW      26  20  77 E14       29.59F VSB 1/2 WCI  14  
EAGLE RIVER    LGT SNOW  24  19  83 SE12      29.60F WCI  12          
LAND O LAKES   LGT SNOW  24  21  89 SE9       29.63S VSB 3/4 WCI  14  
PHILLIPS       LGT SNOW  24  23  96 SE8       29.58F WCI  15          
TOMAHAWK       LGT SNOW  25  22  88 SE7       29.59F WCI  17          
MEDFORD        LGT SNOW  25  22  89 SE6       29.56F VSB 1   WCI  18  
MERRILL        LGT SNOW  26  23  90 SE6       29.60F WCI  19          
$$
 
WIZ029-030-035-036-043>047-202300-
CENTRAL WISCONSIN
  
CITY           SKY/WX    TMP DP  RH WIND       PRES   REMARKS
WAUSAU         LGT SNOW  26  21  81 SE9G20    29.58F WCI  17          
MOSINEE        LGT SNOW  27  23  86 SE9G16    29.60F WCI  17          
MARSHFIELD     LGT SNOW  26  24  92 SE12      29.56F FOG     WCI  16  
STEVENS POINT  MIX PCPN  25  24  96 E9        29.61F WCI  15          
WAUPACA        LGT SNOW  30  26  86 E6        29.62F VSB 3/4 WCI  24  
WAUTOMA        LGT SNOW  28  26  92 E3        29.61F FOG              
WISC RAPIDS    LGT SNOW  27  21  78 E5        29.61F VSB 1   WCI  22  
CAMP DOUGLAS   LGT SNOW  28  28 100 CALM      29.59F FOG              
$$
 
WIZ011>013-019>022-031-037>040-048>050-202300-
NORTHEAST WISCONSIN
  
CITY           SKY/WX    TMP DP  RH WIND       PRES   REMARKS
ANTIGO         LGT SNOW  24  22  91 E15       29.60F WCI  11          
SHAWANO        LGT SNOW  30  27  86 E5        29.64F WCI  25          
OCONTO         CLOUDY    28  26  96 E7        29.66F VSB 1/2 WCI  20  
STURGEON BAY   SNOW      30  28  92 SE7       29.67F VSB 1/2 WCI  23  
GREEN BAY      LGT SNOW  32  28  85 E7        29.64F VSB 3/4 WCI  26  
MANITOWOC      LGT SNOW  32  31  96 SE15      29.65F VSB 1   WCI  22  
APPLETON       LGT SNOW  30  28  93 E7        29.60F VSB 1   WCI  23  
CLINTONVILLE   LGT SNOW  28  25  87 E5        29.63F VSB 1   WCI  23  
OSHKOSH        LGT SNOW  32  30  92 SE8       29.60F VSB 3/4 WCI  25  
$$
 
WIZ032>034-041-042-053>061-202300-
SOUTHWEST WISCONSIN
  
CITY           SKY/WX    TMP DP  RH WIND       PRES   REMARKS
LA CROSSE      LGT SNOW  32  30  92 S10       29.60S FOG     WCI  24  
SPARTA         LGT SNOW  31  28  90 CALM      29.60F                  
VIROQUA        CLOUDY    32  31  98 SW12      29.58S WCI  23          
BOSCOBEL       FLURRIES  35  29  78 SW12      29.63R WCI  27          
PRAIRIE DU CHI LGT SNOW  33  28  79 SW13      29.63R WCI  24          
PLATTEVILLE    CLOUDY    34  33  97 SW17      29.64R WCI  23          
$$

WIZ056-057-062-063-064-067-068-202300-
SOUTH CENTRAL WISCONSIN
  
CITY           SKY/WX    TMP DP  RH WIND       PRES   REMARKS
REEDSBURG      RAIN      32  32 100 S7        29.60S WCI  26          
BARABOO/DELLS  LGT SNOW  32  31  95 SW8       29.60S WCI  25          
LONE ROCK      CLOUDY    35  31  85 SW9       29.62S WCI  28          
MINERAL POINT  LGT RAIN  34  34 100 SW13G18   29.61S WCI  25          
MADISON        LGT SNOW  33  31  92 SW8G18    29.62R FOG     WCI  26  
MIDDLETON      CLOUDY    35  33  92 SW9G16    29.62S WCI  28          
WATERTOWN      LGT SNOW  32  32 100 S7        29.63R WCI  26          
MONROE         CLOUDY    33  32  95 MISG      29.63S                  
JANESVILLE     CLOUDY    36  36 100 SW12G17   29.66R WCI  27          
$$
 
WIZ051-052-058>065-066-070>072-202300-
SOUTHEAST WISCONSIN
  
CITY           SKY/WX    TMP DP  RH WIND       PRES   REMARKS
MILWAUKEE      CLOUDY    34  31  88 S10       29.65S FOG     WCI  26  
WAUKESHA       DRIZZLE   30  30 100 S5        29.64R WCI  25          
MILWAUKEE/TIMM CLOUDY    34  28  80 S9        29.65F WCI  26          
RACINE         CLOUDY    33  31  92 S12       29.66S FOG     WCI  24  
KENOSHA        CLOUDY    35  33  92 S8        29.65R FOG     WCI  29  
FOND DU LAC    LGT SNOW  32  31  96 S8        29.61F FOG     WCI  25  
SHEBOYGAN      LGT SNOW  33  31  92 S10       29.63S FOG     WCI  25  
WEST BEND      LGT SNOW  32  32 100 S8        29.62F WCI  25          
JUNEAU         LGT SNOW  32  31  96 S9        29.63R WCI  24          
$$

LSZ147-162-202300-
LAKE SUPERIOR
  
STATION/POSITION TIME  TEMP    WIND        PRES    WAVE
                       AIR SEA DIR/SP/G            HT/PER
                 (UTC) (F)     (DEG/KT/KT) (MB)    (FT/S)
DEVILS ISLAND    2200   25      60/ 26/ 30 1006.6F
SAXON HARBOR     2140   24      50/  6/  8 1004.4R
$$
 
LMZ867-665-643>646-202300-
LAKE MICHIGAN
  
STATION/POSITION TIME  TEMP    WIND        PRES    WAVE
                       AIR SEA DIR/SP/G            HT/PER
                 (UTC) (F)     (DEG/KT/KT) (MB)    (FT/S)
CHAMBERS ISLAND  2140   27      70/ 12/ 17 1004.7F
NORTHPORT PIER   2140   27      90/ 11/ 13 1006.1F
KEWAUNEE LAKESHO 2148   31     170/ 18/ 21 1003.7F
SHEBOYGAN LAKESH 2200   33     170/ 18/ 20 1004.1F
PORT WASHINGTON  2130   33     170/ 11/ 16 1005.4F
MILWAUKEE LAKESH 2150   33     190/ 11/ 13   N/A
KENOSHA   LAKESH 2200   33     180/  7/ 10 1004.7
$$

TC  - TEMPERATURE IN CELSIUS
VSB - VISIBILITY IN STATUTE MILES
WCI - WIND CHILL INDEX
HX  - HEAT INDEX